Time,TemperatureF,DewpointF,PressureIn,WindDirection,WindDirectionDegrees,WindSpeedMPH,WindSpeedGustMPH,Humidity,HourlyPrecipIn,Conditions,Clouds,dailyrainin,SolarRadiationWatts/m^2,SoftwareType,DateUTC
2013-05-11 00:03:00,69.0,68.0,-100.00,South,173,4.0,-999.0,94,0.00,,,-99.99,0.000000,,2013-05-11 04:03:00,
2013-05-11 00:12:00,69.0,68.0,-100.00,SSE,151,3.0,-999.0,94,0.00,,,-99.99,0.000000,,2013-05-11 04:12:00,
2013-05-11 00:23:00,69.0,68.0,-100.00,SSE,151,3.0,-999.0,94,0.00,,,-99.99,0.000000,,2013-05-11 04:23:00,
2013-05-11 00:33:00,69.0,67.0,-100.00,South,171,3.0,-999.0,95,0.00,,,-99.99,0.000000,,2013-05-11 04:33:00,
2013-05-11 00:43:00,69.0,67.0,-100.00,SSE,152,4.0,-999.0,96,0.00,,,-99.99,0.000000,,2013-05-11 04:43:00,
2013-05-11 00:52:00,69.0,67.0,-100.00,SSE,152,4.0,-999.0,96,0.00,,,-99.99,0.000000,,2013-05-11 04:52:00,
2013-05-11 01:02:00,69.0,68.0,-100.00,South,173,4.0,-999.0,96,0.00,,,-99.99,0.000000,,2013-05-11 05:02:00,
2013-05-11 01:12:00,69.0,68.0,-100.00,South,173,4.0,-999.0,96,0.00,,,-99.99,0.000000,,2013-05-11 05:12:00,
2013-05-11 01:22:00,69.0,68.0,-100.00,South,173,4.0,-999.0,96,0.00,,,-99.99,0.000000,,2013-05-11 05:22:00,
2013-05-11 01:32:00,70.0,69.0,-100.00,South,182,3.0,-999.0,96,0.00,,,-99.99,0.000000,,2013-05-11 05:32:00,
2013-05-11 01:42:00,70.0,69.0,-100.00,SSW,203,3.0,-999.0,96,0.00,,,-99.99,0.000000,,2013-05-11 05:42:00,
2013-05-11 01:52:00,70.0,69.0,-100.00,SSW,203,3.0,-999.0,96,0.00,,,-99.99,0.000000,,2013-05-11 05:52:00,
2013-05-11 02:02:00,70.0,69.0,-100.00,SW,218,2.0,-999.0,96,0.00,,,-99.99,0.000000,,2013-05-11 06:02:00,
2013-05-11 02:12:00,69.0,68.0,-100.00,SSW,210,2.0,-999.0,96,0.00,,,-99.99,0.000000,,2013-05-11 06:12:00,
2013-05-11 02:21:00,69.0,68.0,-100.00,SSW,210,2.0,-999.0,96,0.00,,,-99.99,0.000000,,2013-05-11 06:21:00,
2013-05-11 02:32:00,69.0,68.0,-100.00,SSW,206,3.0,-999.0,97,0.00,,,-99.99,0.000000,,2013-05-11 06:32:00,
2013-05-11 02:42:00,69.0,68.0,-100.00,SSW,205,3.0,-999.0,97,0.00,,,-99.99,0.000000,,2013-05-11 06:42:00,
2013-05-11 02:52:00,69.0,68.0,-100.00,SSW,205,3.0,-999.0,97,0.00,,,-99.99,0.000000,,2013-05-11 06:52:00,
2013-05-11 03:02:00,68.0,68.0,-100.00,SSW,198,2.0,-999.0,98,0.00,,,-99.99,0.000000,,2013-05-11 07:02:00,
2013-05-11 03:12:00,68.0,68.0,-100.00,SSW,205,2.0,-999.0,98,0.00,,,-99.99,0.000000,,2013-05-11 07:12:00,
2013-05-11 03:21:00,68.0,68.0,-100.00,SSW,205,2.0,-999.0,98,0.00,,,-99.99,0.000000,,2013-05-11 07:21:00,
2013-05-11 03:32:00,68.0,68.0,-100.00,SSW,207,2.0,-999.0,98,0.00,,,-99.99,0.000000,,2013-05-11 07:32:00,
2013-05-11 03:42:00,68.0,68.0,-100.00,South,181,3.0,-999.0,98,0.00,,,-99.99,0.000000,,2013-05-11 07:42:00,
2013-05-11 03:52:00,68.0,68.0,-100.00,South,181,3.0,-999.0,98,0.00,,,-99.99,0.000000,,2013-05-11 07:52:00,
2013-05-11 04:01:00,68.0,67.0,-100.00,SSE,167,4.0,-999.0,99,0.00,,,-99.99,0.000000,,2013-05-11 08:01:00,
2013-05-11 04:12:00,68.0,68.0,-100.00,South,185,4.0,-999.0,99,0.00,,,-99.99,0.000000,,2013-05-11 08:12:00,
2013-05-11 04:21:00,68.0,68.0,-100.00,South,185,4.0,-999.0,99,0.00,,,-99.99,0.000000,,2013-05-11 08:21:00,
2013-05-11 04:32:00,68.0,68.0,-100.00,South,186,4.0,-999.0,99,0.00,,,-99.99,0.000000,,2013-05-11 08:32:00,
2013-05-11 04:42:00,68.0,68.0,-100.00,SSW,205,3.0,-999.0,99,0.00,,,-99.99,0.000000,,2013-05-11 08:42:00,
2013-05-11 04:52:00,68.0,68.0,-100.00,SSW,205,3.0,-999.0,99,0.00,,,-99.99,0.000000,,2013-05-11 08:52:00,
2013-05-11 05:01:00,68.0,68.0,-100.00,WSW,239,2.0,-999.0,99,0.00,,,-99.99,0.000000,,2013-05-11 09:01:00,
2013-05-11 05:11:00,68.0,68.0,-100.00,SW,222,2.0,-999.0,100,0.00,,,-99.99,0.000000,,2013-05-11 09:11:00,
2013-05-11 05:21:00,68.0,68.0,-100.00,SW,222,2.0,-999.0,100,0.00,,,-99.99,0.000000,,2013-05-11 09:21:00,
2013-05-11 05:32:00,68.0,68.0,-100.00,SSE,151,3.0,-999.0,100,0.00,,,-99.99,0.000000,,2013-05-11 09:32:00,
2013-05-11 05:42:00,68.0,68.0,-100.00,SE,130,5.0,-999.0,100,0.00,,,-99.99,0.000000,,2013-05-11 09:42:00,
2013-05-11 05:53:00,68.0,68.0,-100.00,SE,130,5.0,-999.0,100,0.00,,,-99.99,0.000000,,2013-05-11 09:53:00,
2013-05-11 06:03:00,68.0,68.0,-100.00,SE,139,4.0,-999.0,100,0.00,,,-99.99,0.000000,,2013-05-11 10:03:00,
2013-05-11 06:12:00,68.0,68.0,-100.00,SSE,166,2.0,-999.0,100,0.00,,,-99.99,0.000000,,2013-05-11 10:12:00,
2013-05-11 06:22:00,68.0,68.0,-100.00,SSE,166,2.0,-999.0,100,0.00,,,-99.99,0.000000,,2013-05-11 10:22:00,
2013-05-11 06:33:00,68.0,68.0,-100.00,South,179,2.0,-999.0,100,0.00,,,-99.99,0.000000,,2013-05-11 10:33:00,
2013-05-11 06:42:00,67.0,67.0,-100.00,SSW,211,1.0,-999.0,100,0.00,,,-99.99,0.200000,,2013-05-11 10:42:00,
2013-05-11 06:53:00,67.0,67.0,-100.00,SSW,211,1.0,-999.0,100,0.00,,,-99.99,0.200000,,2013-05-11 10:53:00,
2013-05-11 07:02:00,67.0,67.0,-100.00,SW,221,1.0,-999.0,100,0.00,,,-99.99,2.200000,,2013-05-11 11:02:00,
2013-05-11 07:12:00,66.0,66.0,-100.00,SSW,199,2.0,-999.0,100,0.00,,,-99.99,11.100000,,2013-05-11 11:12:00,
2013-05-11 07:22:00,66.0,66.0,-100.00,SSW,199,2.0,-999.0,100,0.00,,,-99.99,11.100000,,2013-05-11 11:22:00,
2013-05-11 07:32:00,67.0,67.0,-100.00,SW,227,2.0,-999.0,100,0.00,,,-99.99,32.000000,,2013-05-11 11:32:00,
2013-05-11 07:42:00,67.0,67.0,-100.00,SW,227,2.0,-999.0,100,0.00,,,-99.99,32.000000,,2013-05-11 11:42:00,
2013-05-11 07:52:00,67.0,67.0,-100.00,SW,223,2.0,-999.0,100,0.00,,,-99.99,75.300003,,2013-05-11 11:52:00,
2013-05-11 08:01:00,69.0,69.0,-100.00,SSW,192,1.0,-999.0,100,0.00,,,-99.99,106.000000,,2013-05-11 12:01:00,
2013-05-11 08:11:00,70.0,70.0,-100.00,South,175,1.0,-999.0,100,0.00,,,-99.99,129.699997,,2013-05-11 12:11:00,
2013-05-11 08:22:00,70.0,70.0,-100.00,South,175,1.0,-999.0,100,0.00,,,-99.99,129.699997,,2013-05-11 12:22:00,
2013-05-11 08:32:00,71.0,71.0,-100.00,South,169,4.0,-999.0,100,0.00,,,-99.99,187.000000,,2013-05-11 12:32:00,
2013-05-11 08:42:00,73.0,73.0,-100.00,SSW,197,3.0,-999.0,100,0.00,,,-99.99,253.500000,,2013-05-11 12:42:00,
2013-05-11 08:52:00,73.0,73.0,-100.00,SSW,197,3.0,-999.0,100,0.00,,,-99.99,253.500000,,2013-05-11 12:52:00,
2013-05-11 09:02:00,74.0,74.0,-100.00,SW,214,5.0,-999.0,100,0.00,,,-99.99,286.200012,,2013-05-11 13:02:00,
2013-05-11 09:11:00,76.0,75.0,-100.00,SW,218,6.0,-999.0,98,0.00,,,-99.99,367.600006,,2013-05-11 13:11:00,
2013-05-11 09:21:00,76.0,75.0,-100.00,SW,218,6.0,-999.0,98,0.00,,,-99.99,367.600006,,2013-05-11 13:21:00,
2013-05-11 09:32:00,77.0,76.0,-100.00,SW,227,6.0,-999.0,96,0.00,,,-99.99,419.500000,,2013-05-11 13:32:00,
2013-05-11 09:42:00,78.0,75.0,-100.00,SW,216,7.0,-999.0,91,0.00,,,-99.99,462.899994,,2013-05-11 13:42:00,
2013-05-11 09:52:00,78.0,75.0,-100.00,SW,216,7.0,-999.0,91,0.00,,,-99.99,462.899994,,2013-05-11 13:52:00,
2013-05-11 10:02:00,79.0,75.0,-100.00,SSW,205,7.0,-999.0,87,0.00,,,-99.99,459.500000,,2013-05-11 14:02:00,
2013-05-11 10:11:00,79.0,75.0,-100.00,SSW,205,8.0,-999.0,85,0.00,,,-99.99,480.500000,,2013-05-11 14:11:00,
2013-05-11 10:21:00,79.0,75.0,-100.00,SSW,205,8.0,-999.0,85,0.00,,,-99.99,480.500000,,2013-05-11 14:21:00,
2013-05-11 10:32:00,80.0,74.0,-100.00,SW,230,9.0,-999.0,81,0.00,,,-99.99,396.000000,,2013-05-11 14:32:00,
2013-05-11 10:42:00,80.0,73.0,-100.00,SW,221,7.0,-999.0,79,0.00,,,-99.99,370.500000,,2013-05-11 14:42:00,
2013-05-11 10:52:00,80.0,73.0,-100.00,SW,221,7.0,-999.0,79,0.00,,,-99.99,370.500000,,2013-05-11 14:52:00,
2013-05-11 11:01:00,81.0,73.0,-100.00,SW,224,9.0,-999.0,76,0.00,,,-99.99,475.299988,,2013-05-11 15:01:00,
2013-05-11 11:12:00,82.0,72.0,-100.00,SW,225,9.0,-999.0,71,0.00,,,-99.99,634.299988,,2013-05-11 15:12:00,
2013-05-11 11:21:00,82.0,72.0,-100.00,SW,225,9.0,-999.0,71,0.00,,,-99.99,634.299988,,2013-05-11 15:21:00,
2013-05-11 11:32:00,82.0,72.0,-100.00,SW,223,10.0,-999.0,71,0.00,,,-99.99,453.200012,,2013-05-11 15:32:00,
2013-05-11 11:43:00,82.0,72.0,-100.00,SW,218,9.0,-999.0,70,0.00,,,-99.99,505.600006,,2013-05-11 15:43:00,
2013-05-11 11:53:00,82.0,72.0,-100.00,SW,218,9.0,-999.0,70,0.00,,,-99.99,505.600006,,2013-05-11 15:53:00,
2013-05-11 12:02:00,84.0,71.0,-100.00,SW,220,11.0,-999.0,65,0.00,,,-99.99,865.000000,,2013-05-11 16:02:00,
2013-05-11 12:12:00,84.0,71.0,-100.00,SW,219,12.0,-999.0,65,0.00,,,-99.99,892.000000,,2013-05-11 16:12:00,
2013-05-11 12:23:00,84.0,71.0,-100.00,SW,219,12.0,-999.0,65,0.00,,,-99.99,892.000000,,2013-05-11 16:23:00,
2013-05-11 12:33:00,85.0,72.0,-100.00,SSW,210,11.0,-999.0,64,0.00,,,-99.99,811.000000,,2013-05-11 16:33:00,
2013-05-11 12:42:00,85.0,71.0,-100.00,SSW,212,11.0,-999.0,63,0.00,,,-99.99,768.000000,,2013-05-11 16:42:00,
2013-05-11 12:53:00,85.0,71.0,-100.00,SSW,212,11.0,-999.0,63,0.00,,,-99.99,768.000000,,2013-05-11 16:53:00,
2013-05-11 13:02:00,86.0,72.0,-100.00,SSW,207,10.0,-999.0,62,0.00,,,-99.99,903.000000,,2013-05-11 17:02:00,
2013-05-11 13:12:00,86.0,70.0,-100.00,SSW,198,12.0,-999.0,60,0.00,,,-99.99,935.000000,,2013-05-11 17:12:00,
2013-05-11 13:22:00,86.0,70.0,-100.00,SSW,198,12.0,-999.0,60,0.00,,,-99.99,935.000000,,2013-05-11 17:22:00,
2013-05-11 13:32:00,86.0,70.0,-100.00,SSW,207,11.0,-999.0,58,0.00,,,-99.99,957.000000,,2013-05-11 17:32:00,
2013-05-11 13:42:00,87.0,70.0,-100.00,SW,217,11.0,-999.0,56,0.00,,,-99.99,900.000000,,2013-05-11 17:42:00,
2013-05-11 13:52:00,87.0,70.0,-100.00,SW,217,11.0,-999.0,56,0.00,,,-99.99,900.000000,,2013-05-11 17:52:00,
2013-05-11 14:01:00,87.0,69.0,-100.00,SSW,208,12.0,-999.0,55,0.00,,,-99.99,859.000000,,2013-05-11 18:01:00,
2013-05-11 14:12:00,87.0,68.0,-100.00,SW,221,12.0,-999.0,53,0.00,,,-99.99,989.000000,,2013-05-11 18:12:00,
2013-05-11 14:21:00,87.0,68.0,-100.00,SW,221,12.0,-999.0,53,0.00,,,-99.99,989.000000,,2013-05-11 18:21:00,
2013-05-11 14:32:00,87.0,69.0,-100.00,SW,224,12.0,-999.0,53,0.00,,,-99.99,944.000000,,2013-05-11 18:32:00,
2013-05-11 14:42:00,88.0,69.0,-100.00,SW,227,10.0,-999.0,53,0.00,,,-99.99,931.000000,,2013-05-11 18:42:00,
2013-05-11 14:52:00,88.0,69.0,-100.00,SW,227,10.0,-999.0,53,0.00,,,-99.99,931.000000,,2013-05-11 18:52:00,
2013-05-11 15:02:00,88.0,69.0,-100.00,SSW,197,9.0,-999.0,52,0.00,,,-99.99,881.000000,,2013-05-11 19:02:00,
2013-05-11 15:11:00,88.0,69.0,-100.00,SW,214,9.0,-999.0,52,0.00,,,-99.99,868.000000,,2013-05-11 19:11:00,
2013-05-11 15:21:00,88.0,69.0,-100.00,SW,214,9.0,-999.0,52,0.00,,,-99.99,868.000000,,2013-05-11 19:21:00,
2013-05-11 15:32:00,88.0,69.0,-100.00,SSW,212,8.0,-999.0,52,0.00,,,-99.99,614.700012,,2013-05-11 19:32:00,
2013-05-11 15:42:00,88.0,68.0,-100.00,SSW,199,10.0,-999.0,51,0.00,,,-99.99,725.000000,,2013-05-11 19:42:00,
2013-05-11 15:53:00,88.0,68.0,-100.00,SSW,199,10.0,-999.0,51,0.00,,,-99.99,725.000000,,2013-05-11 19:53:00,
2013-05-11 16:02:00,89.0,68.0,-100.00,SSW,201,8.0,-999.0,49,0.00,,,-99.99,799.000000,,2013-05-11 20:02:00,
2013-05-11 16:12:00,89.0,68.0,-100.00,SSW,195,9.0,-999.0,48,0.00,,,-99.99,776.000000,,2013-05-11 20:12:00,
2013-05-11 16:22:00,89.0,68.0,-100.00,SSW,195,9.0,-999.0,48,0.00,,,-99.99,776.000000,,2013-05-11 20:22:00,
2013-05-11 16:32:00,89.0,68.0,-100.00,SSW,211,9.0,-999.0,49,0.00,,,-99.99,560.700012,,2013-05-11 20:32:00,
2013-05-11 16:42:00,89.0,67.0,-100.00,SW,216,9.0,-999.0,48,0.00,,,-99.99,618.099976,,2013-05-11 20:42:00,
2013-05-11 16:52:00,89.0,67.0,-100.00,SW,216,9.0,-999.0,48,0.00,,,-99.99,618.099976,,2013-05-11 20:52:00,
2013-05-11 17:02:00,89.0,68.0,-100.00,SW,218,9.0,-999.0,48,0.00,,,-99.99,608.700012,,2013-05-11 21:02:00,
2013-05-11 17:11:00,88.0,66.0,-100.00,SW,220,8.0,-999.0,48,0.00,,,-99.99,161.699997,,2013-05-11 21:11:00,
2013-05-11 17:22:00,88.0,66.0,-100.00,SW,220,8.0,-999.0,48,0.00,,,-99.99,161.699997,,2013-05-11 21:22:00,
2013-05-11 17:33:00,87.0,67.0,-100.00,SW,226,6.0,-999.0,51,0.00,,,-99.99,171.699997,,2013-05-11 21:33:00,
2013-05-11 17:43:00,87.0,67.0,-100.00,SSW,210,6.0,-999.0,51,0.00,,,-99.99,89.800003,,2013-05-11 21:43:00,
2013-05-11 17:53:00,87.0,67.0,-100.00,SSW,210,6.0,-999.0,51,0.00,,,-99.99,89.800003,,2013-05-11 21:53:00,
2013-05-11 18:02:00,85.0,68.0,-100.00,West,263,8.0,-999.0,56,0.00,,,-99.99,23.500000,,2013-05-11 22:02:00,
2013-05-11 18:13:00,73.0,69.0,-100.00,West,274,24.0,-999.0,89,4.16,,,-99.99,1.600000,,2013-05-11 22:13:00,
2013-05-11 18:23:00,73.0,69.0,-100.00,West,274,24.0,-999.0,89,4.16,,,-99.99,1.600000,,2013-05-11 22:23:00,
2013-05-11 18:33:00,68.0,68.0,-100.00,NE,56,13.0,-999.0,99,3.72,,,-99.99,5.200000,,2013-05-11 22:33:00,
2013-05-11 18:42:00,68.0,68.0,-100.00,SE,124,6.0,-999.0,100,0.19,,,-99.99,9.400000,,2013-05-11 22:42:00,
2013-05-11 18:52:00,68.0,68.0,-100.00,SE,124,6.0,-999.0,100,0.19,,,-99.99,9.400000,,2013-05-11 22:52:00,
2013-05-11 19:02:00,69.0,69.0,-100.00,West,274,5.0,-999.0,100,0.27,,,-99.99,10.100000,,2013-05-11 23:02:00,
2013-05-11 19:12:00,69.0,69.0,-100.00,SSW,206,4.0,-999.0,100,1.20,,,-99.99,19.000000,,2013-05-11 23:12:00,
2013-05-11 19:22:00,69.0,69.0,-100.00,SSW,206,4.0,-999.0,100,1.20,,,-99.99,19.000000,,2013-05-11 23:22:00,
2013-05-11 19:32:00,69.0,69.0,-100.00,ENE,74,5.0,-999.0,100,0.00,,,-99.99,13.800000,,2013-05-11 23:32:00,
2013-05-11 19:42:00,69.0,69.0,-100.00,South,176,6.0,-999.0,100,0.08,,,-99.99,3.000000,,2013-05-11 23:42:00,
2013-05-11 19:52:00,69.0,69.0,-100.00,South,176,6.0,-999.0,100,0.08,,,-99.99,3.000000,,2013-05-11 23:52:00,
2013-05-11 20:01:00,69.0,69.0,-100.00,SW,214,4.0,-999.0,100,0.22,,,-99.99,0.500000,,2013-05-12 00:01:00,
2013-05-11 20:12:00,69.0,69.0,-100.00,West,280,4.0,-999.0,100,0.22,,,-99.99,0.200000,,2013-05-12 00:12:00,
2013-05-11 20:21:00,69.0,69.0,-100.00,West,280,4.0,-999.0,100,0.22,,,-99.99,0.200000,,2013-05-12 00:21:00,
2013-05-11 20:32:00,70.0,70.0,-100.00,West,273,7.0,-999.0,100,0.90,,,-99.99,0.000000,,2013-05-12 00:32:00,
2013-05-11 20:42:00,70.0,70.0,-100.00,SW,216,8.0,-999.0,100,0.60,,,-99.99,0.000000,,2013-05-12 00:42:00,
2013-05-11 20:52:00,70.0,70.0,-100.00,SW,216,8.0,-999.0,100,0.60,,,-99.99,0.000000,,2013-05-12 00:52:00,
2013-05-11 21:01:00,70.0,70.0,-100.00,SSW,192,8.0,-999.0,100,0.74,,,-99.99,0.000000,,2013-05-12 01:01:00,
2013-05-11 21:11:00,70.0,70.0,-100.00,ESE,107,5.0,-999.0,100,0.00,,,-99.99,0.000000,,2013-05-12 01:11:00,
2013-05-11 21:21:00,70.0,70.0,-100.00,ESE,107,5.0,-999.0,100,0.00,,,-99.99,0.000000,,2013-05-12 01:21:00,
2013-05-11 21:32:00,70.0,70.0,-100.00,SE,134,9.0,-999.0,100,0.00,,,-99.99,0.000000,,2013-05-12 01:32:00,
2013-05-11 21:42:00,70.0,70.0,-100.00,SE,134,9.0,-999.0,100,0.00,,,-99.99,0.000000,,2013-05-12 01:42:00,
2013-05-11 21:52:00,70.0,70.0,-100.00,SE,134,9.0,-999.0,100,0.00,,,-99.99,0.000000,,2013-05-12 01:52:00,
2013-05-11 22:01:00,70.0,70.0,-100.00,SE,133,6.0,-999.0,100,0.00,,,-99.99,0.000000,,2013-05-12 02:01:00,
2013-05-11 22:11:00,70.0,70.0,-100.00,SE,133,4.0,-999.0,100,0.00,,,-99.99,0.000000,,2013-05-12 02:11:00,
2013-05-11 22:22:00,70.0,70.0,-100.00,SE,133,4.0,-999.0,100,0.00,,,-99.99,0.000000,,2013-05-12 02:22:00,
2013-05-11 22:32:00,69.0,69.0,-100.00,South,172,4.0,-999.0,100,0.00,,,-99.99,0.000000,,2013-05-12 02:32:00,
2013-05-11 22:42:00,69.0,69.0,-100.00,SSE,164,4.0,-999.0,100,0.00,,,-99.99,0.000000,,2013-05-12 02:42:00,
2013-05-11 22:52:00,69.0,69.0,-100.00,SSE,164,4.0,-999.0,100,0.00,,,-99.99,0.000000,,2013-05-12 02:52:00,
2013-05-11 23:01:00,69.0,69.0,-100.00,SSW,200,5.0,-999.0,100,0.00,,,-99.99,0.000000,,2013-05-12 03:01:00,
2013-05-11 23:11:00,69.0,69.0,-100.00,South,190,4.0,-999.0,100,0.00,,,-99.99,0.000000,,2013-05-12 03:11:00,
2013-05-11 23:22:00,69.0,69.0,-100.00,South,190,4.0,-999.0,100,0.00,,,-99.99,0.000000,,2013-05-12 03:22:00,
2013-05-11 23:33:00,69.0,69.0,-100.00,South,182,4.0,-999.0,100,0.00,,,-99.99,0.000000,,2013-05-12 03:33:00,
2013-05-11 23:43:00,69.0,69.0,-100.00,South,175,3.0,-999.0,100,0.00,,,-99.99,0.000000,,2013-05-12 03:43:00,
2013-05-11 23:53:00,69.0,69.0,-100.00,South,175,3.0,-999.0,100,0.00,,,-99.99,0.000000,,2013-05-12 03:53:00,